Simultaneous Nadir Overpasses (SNOs) Predictions

Prediction of SNOs between GOES-15 and LANDSAT-8 Satellite Orbit:

Table of predicted SNOs for the next 14.0 days since TLE Epoch: 7/30/2022
Index Date Time (GOES-15) GOES-15 Lat,Lon LANDSAT-8 Lat,Lon Distance(km) Time Diff (sec)
1 07/30/2022 06:34:04 0.00,-128.05 0.46,-125.75 260.30 80
2 07/30/2022 18:58:00 0.04,-128.07 0.63,-130.91 322.64 80
3 08/01/2022 18:43:10 0.03,-128.01 -0.01,-127.96 7.10 80
4 08/03/2022 18:30:59 0.02,-127.95 -0.59,-124.99 335.24 80
5 08/04/2022 06:55:03 -0.07,-127.89 -0.54,-130.18 259.72 80
6 08/06/2022 06:40:12 -0.06,-127.82 0.04,-127.22 68.05 80
7 08/08/2022 06:28:02 -0.05,-127.74 0.70,-124.27 394.88 80
8 08/08/2022 18:51:57 0.10,-127.75 0.45,-129.41 189.33 80
9 08/10/2022 18:37:06 0.09,-127.66 -0.15,-126.45 136.78 80
10 08/11/2022 07:01:09 -0.14,-127.60 -0.98,-131.64 458.05 80
11 08/12/2022 18:24:56 0.08,-127.57 -0.81,-123.50 462.80 80
